Wind_Speed
17 17 17 17 17 17 17 18 18 18 18 19 19 20 20 20 21 21 22 22 22 23 23 23 24 24 25 25 26 27 28 29 29 29 30 31 31 31
15 16 16 16 16 17 17 17 17 18 19 20 21 22 22 22 22 21 22 23 23 24 24 25 26 26 26 26 27 28 29 30 30 31 31 32 32 32
14 15 16 16 16 16 17 17 18 19 19 20 22 22 23 23 23 22 23 24 24 25 26 27 27 27 27 27 28 29 30 31 31 32 32 33 33 34
14 14 15 16 16 17 17 18 18 20 21 22 23 23 23 24 24 24 25 26 26 26 27 28 28 29 29 29 29 30 31 32 33 33 34 34 35 35
14 15 15 16 16 17 17 18 19 20 21 22 23 24 24 25 25 26 26 26 26 27 28 28 29 30 31 31 31 32 32 33 33 34 34 35 36 37
14 14 15 16 17 18 18 19 19 20 21 22 23 23 25 26 25 26 26 26 26 28 28 29 30 30 30 31 31 32 33 33 34 35 36 37 38 39
14 15 15 16 17 18 19 19 20 21 22 23 23 24 25 26 26 26 26 26 27 28 28 30 29 29 30 30 31 32 34 35 36 37 38 38 39 40
14 14 15 16 17 18 20 20 21 22 23 23 24 24 25 25 26 26 27 27 28 29 30 30 30 31 31 31 32 34 35 36 37 38 38 40 41 41
15 15 16 17 17 19 20 21 22 22 23 23 23 24 25 25 26 27 27 28 28 29 30 30 31 31 32 33 34 35 36 37 38 39 39 40 41 41
17 17 18 18 19 20 21 21 21 22 22 22 23 24 24 25 26 27 28 28 29 30 31 31 31 32 33 34 35 36 36 37 38 38 39 40 40 40
19 19 19 20 21 21 21 21 22 23 23 24 24 25 26 27 27 28 28 29 29 30 30 32 33 33 34 35 35 36 37 37 38 38 39 40 40 39
20 21 21 21 22 22 22 23 23 24 24 25 26 26 27 27 28 28 29 29 29 30 31 32 33 34 34 35 36 36 37 37 38 38 38 39 39 39
21 21 22 22 23 23 23 24 24 25 25 26 27 27 27 27 28 28 29 30 30 31 32 32 33 34 34 35 35 35 36 36 37 37 37 37 37 37
23 23 23 24 24 24 24 25 25 26 26 27 27 27 28 28 28 29 30 31 31 32 32 33 34 34 33 34 34 35 35 35 35 35 35 34 33 33
24 24 24 25 25 25 26 26 26 27 27 28 28 28 29 29 30 31 31 32 32 33 33 34 34 33 33 34 34 34 34 34 33 33 32 31 31 31
26 26 26 26 26 27 27 27 27 28 28 29 29 29 30 30 31 31 32 32 33 33 33 33 33 33 33 34 34 33 33 32 31 30 29 29 29 28
27 27 27 28 28 28 28 28 28 28 29 29 30 31 31 31 31 32 32 32 33 33 33 32 32 32 32 32 32 32 31 30 30 29 29 28 27 27
28 28 29 29 29 29 29 29 29 30 30 30 30 31 31 31 31 32 32 32 32 32 32 31 31 30 30 29 29 29 29 28 28 28 28 27 26 26
29 29 29 29 29 30 30 30 31 30 30 31 31 31 31 31 31 31 32 32 32 31 31 31 30 30 30 29 29 28 28 28 27 27 27 26 25 25
30 30 30 30 30 30 30 30 31 31 31 31 31 31 31 31 31 31 32 31 31 31 31 30 29 29 28 28 28 27 28 27 27 26 26 25 24 24
30 30 30 30 30 30 31 31 31 31 32 32 32 32 31 31 31 31 31 30 30 30 30 30 29 28 27 27 27 27 27 27 26 26 25 24 24 24
31 31 31 31 31 31 31 31 32 32 32 32 31 31 31 31 31 31 30 30 29 29 29 29 28 27 27 27 27 27 27 26 26 25 25 25 24 24
32 32 32 31 32 32 32 32 33 32 32 31 31 31 31 30 30 30 30 29 29 29 29 28 28 27 27 26 26 26 26 25 25 25 25 25 25 25
Wind_Direction
273 274 273 274 275 273 273 273 275 274 275 278 282 283 281 282 281 283 283 279 278 277 275 277 277 278 277 276 277 279 279 279 280 279 278 279 279 279
277 276 274 275 276 276 275 275 277 277 277 278 281 282 282 282 282 284 283 281 281 279 277 277 277 278 278 278 279 280 281 282 282 282 282 281 281 281
279 276 274 276 278 280 278 277 277 277 279 280 283 283 282 282 282 284 282 280 281 282 279 278 279 280 281 280 280 280 282 283 283 284 284 283 281 281
281 281 280 279 279 282 280 278 278 281 282 282 283 286 285 284 283 283 283 283 281 281 278 278 280 280 279 279 279 280 282 283 284 284 285 284 283 283
282 284 283 281 280 283 281 281 281 282 284 284 286 288 287 288 288 285 285 285 284 281 280 281 281 281 280 280 280 282 283 283 284 286 285 285 285 285
285 286 283 283 284 285 286 285 284 285 285 286 287 288 288 288 288 288 286 285 287 284 284 285 285 284 283 283 283 283 284 285 285 287 287 286 286 287
287 286 285 285 287 288 288 287 286 285 286 287 288 289 288 288 288 288 287 286 286 285 287 287 287 287 286 285 284 285 286 286 287 288 289 288 288 287
292 289 286 285 287 287 288 288 288 286 287 288 291 291 291 291 289 288 287 286 287 287 287 287 287 286 285 286 286 286 287 288 289 290 289 289 289 289
292 291 291 291 291 292 289 288 288 287 287 289 290 290 291 291 290 290 290 289 289 288 288 287 287 287 287 287 287 288 289 290 290 290 290 291 291 291
291 291 293 293 294 294 293 292 291 291 291 291 292 293 293 293 292 291 291 290 289 288 288 288 289 291 291 291 291 290 290 291 291 290 291 291 292 291
292 292 291 292 294 295 293 293 293 293 292 292 292 292 292 292 292 292 292 291 291 290 289 290 292 294 293 292 292 292 293 293 293 293 293 293 292 292
294 293 292 293 294 295 294 293 294 294 293 293 293 293 293 293 293 293 293 293 293 292 292 292 293 294 295 295 296 295 296 296 295 295 295 294 294 294
297 295 293 293 293 294 294 294 294 294 294 294 294 295 295 294 295 295 295 294 294 294 294 295 295 296 296 297 297 297 297 297 297 296 296 295 295 296
295 295 294 294 294 294 294 294 294 294 294 295 295 295 295 295 296 297 297 296 295 295 296 297 297 297 298 298 298 298 298 298 299 299 298 297 297 298
295 295 295 294 294 294 294 294 294 294 294 295 295 294 294 294 295 296 297 297 297 297 297 298 299 299 299 300 299 299 299 300 300 300 300 300 301 301
295 294 294 293 293 294 294 295 294 294 295 295 294 293 294 294 295 295 297 297 297 297 298 299 299 299 300 300 300 301 301 302 302 302 301 302 302 302
295 293 293 292 292 293 293 294 295 294 293 293 292 293 295 296 296 296 297 298 298 298 299 299 299 300 301 302 302 302 302 302 302 302 302 302 302 302
292 291 291 291 292 293 294 294 294 293 294 294 294 295 295 295 296 297 297 298 298 298 299 300 301 302 303 304 304 304 303 303 302 302 302 302 302 303
292 291 291 291 292 293 293 293 293 293 293 293 294 295 296 296 296 297 298 297 297 297 298 300 300 301 302 302 303 304 304 304 303 302 302 301 302 303
293 292 291 291 292 292 292 293 294 294 295 295 295 295 295 295 295 296 297 298 297 298 299 301 301 301 301 301 301 303 304 303 302 301 301 301 301 302
293 292 291 291 291 291 292 293 294 295 295 295 295 295 295 295 295 295 296 297 297 297 298 300 301 301 302 302 301 302 303 302 301 300 300 300 301 302
292 291 290 290 290 291 291 292 293 295 295 295 294 294 294 295 295 295 296 297 297 297 299 300 300 301 301 301 301 302 303 301 301 300 299 300 301 302
290 289 289 289 291 292 291 292 293 294 294 294 294 294 294 294 295 295 296 296 296 297 298 298 299 300 300 301 301 301 301 301 301 300 299 300 302 303
Height
5877 5877 5876 5875 5874 5874 5874 5873 5873 5872 5871 5870 5869 5867 5866 5865 5864 5862 5860 5859 5858 5857 5856 5855 5853 5852 5850 5849 5847 5846 5844 5842 5841 5839 5837 5835 5834 5832
5873 5872 5872 5871 5870 5869 5868 5868 5867 5867 5866 5865 5864 5863 5861 5860 5858 5856 5855 5854 5852 5851 5849 5848 5847 5845 5843 5842 5840 5839 5837 5835 5833 5831 5829 5827 5825 5823
5869 5868 5867 5866 5866 5865 5864 5863 5862 5861 5861 5859 5858 5856 5855 5854 5852 5850 5849 5847 5846 5844 5842 5841 5839 5838 5836 5834 5833 5831 5829 5827 5825 5823 5821 5819 5817 5815
5864 5864 5863 5862 5861 5860 5859 5858 5857 5856 5855 5854 5852 5850 5849 5848 5846 5844 5842 5841 5839 5837 5835 5834 5832 5830 5828 5827 5825 5823 5821 5819 5817 5814 5812 5810 5807 5805
5860 5859 5858 5857 5856 5856 5855 5853 5852 5851 5849 5848 5846 5845 5843 5841 5839 5837 5836 5834 5832 5830 5828 5826 5824 5822 5821 5819 5817 5815 5813 5811 5808 5806 5803 5800 5798 5795
5856 5855 5854 5853 5852 5851 5850 5848 5847 5845 5844 5842 5841 5838 5837 5835 5832 5831 5829 5827 5825 5823 5821 5819 5817 5815 5812 5810 5808 5806 5804 5802 5799 5796 5793 5791 5788 5785
5852 5851 5850 5848 5847 5846 5845 5843 5842 5840 5838 5836 5834 5832 5830 5828 5826 5824 5822 5820 5818 5816 5814 5811 5809 5807 5804 5802 5800 5798 5795 5792 5789 5787 5783 5780 5777 5774
5848 5846 5845 5844 5842 5841 5839 5838 5836 5834 5832 5830 5828 5826 5824 5822 5819 5817 5815 5813 5811 5809 5806 5804 5801 5799 5796 5794 5791 5788 5786 5783 5780 5776 5773 5770 5767 5763
5843 5842 5840 5839 5837 5836 5834 5832 5830 5828 5826 5825 5822 5820 5818 5815 5813 5810 5808 5806 5804 5801 5798 5795 5793 5790 5787 5784 5782 5779 5776 5773 5770 5766 5763 5759 5755 5752
5839 5837 5835 5834 5832 5830 5828 5826 5824 5822 5820 5818 5816 5814 5811 5809 5806 5804 5801 5798 5796 5793 5790 5787 5784 5781 5778 5775 5772 5769 5765 5762 5758 5755 5752 5748 5745 5741
5833 5832 5830 5828 5826 5824 5822 5820 5818 5816 5813 5811 5809 5807 5804 5801 5799 5796 5793 5791 5788 5785 5782 5779 5776 5772 5769 5766 5762 5759 5755 5752 5748 5744 5741 5737 5733 5729
5828 5826 5824 5822 5820 5818 5816 5814 5812 5809 5807 5804 5802 5799 5797 5794 5791 5788 5785 5782 5780 5777 5773 5770 5767 5763 5760 5757 5753 5749 5745 5741 5738 5734 5730 5726 5722 5718
5822 5820 5818 5816 5814 5812 5809 5807 5805 5802 5799 5797 5794 5792 5789 5786 5783 5780 5777 5774 5771 5768 5765 5761 5758 5754 5751 5747 5743 5739 5735 5731 5728 5724 5720 5716 5712 5708
5816 5814 5811 5809 5807 5805 5802 5800 5797 5795 5792 5789 5787 5784 5781 5778 5775 5772 5769 5765 5762 5759 5755 5752 5749 5745 5741 5737 5734 5730 5726 5722 5718 5714 5710 5706 5702 5698
5809 5806 5804 5802 5800 5797 5795 5792 5790 5787 5784 5781 5779 5776 5773 5770 5767 5763 5760 5756 5753 5750 5746 5743 5739 5736 5732 5728 5724 5720 5716 5712 5708 5705 5701 5697 5693 5690
5801 5799 5797 5794 5792 5789 5787 5784 5781 5779 5776 5773 5770 5767 5764 5761 5758 5755 5751 5748 5744 5741 5737 5734 5730 5726 5723 5719 5715 5711 5707 5703 5700 5696 5693 5689 5686 5682
5794 5791 5789 5787 5784 5781 5779 5776 5773 5770 5767 5765 5762 5759 5755 5752 5749 5746 5743 5739 5736 5732 5728 5725 5721 5717 5713 5710 5706 5702 5699 5695 5692 5688 5685 5681 5678 5675
5786 5783 5781 5778 5776 5773 5770 5768 5765 5762 5759 5756 5753 5750 5747 5743 5740 5737 5734 5730 5727 5723 5720 5716 5713 5709 5705 5702 5699 5695 5691 5688 5684 5681 5678 5675 5671 5668
5777 5774 5772 5770 5767 5764 5762 5759 5756 5753 5750 5747 5744 5741 5738 5735 5731 5728 5724 5721 5718 5714 5711 5708 5704 5701 5697 5694 5691 5688 5684 5681 5677 5674 5671 5668 5665 5662
5768 5765 5763 5760 5758 5755 5752 5750 5747 5744 5741 5738 5735 5732 5729 5726 5722 5719 5715 5712 5709 5706 5703 5699 5696 5693 5690 5687 5683 5680 5677 5674 5670 5667 5664 5661 5659 5655
5759 5756 5754 5751 5749 5746 5743 5741 5738 5735 5732 5729 5726 5722 5719 5716 5713 5710 5706 5703 5700 5697 5694 5691 5688 5685 5682 5679 5676 5673 5670 5667 5663 5661 5658 5655 5652 5650
5750 5747 5745 5742 5739 5737 5734 5731 5728 5725 5722 5719 5716 5713 5710 5707 5704 5701 5698 5695 5692 5689 5686 5683 5680 5677 5674 5671 5668 5666 5663 5660 5656 5654 5651 5649 5646 5643
5740 5738 5735 5732 5730 5727 5724 5721 5719 5716 5713 5710 5707 5704 5701 5698 5695 5692 5689 5686 5684 5681 5678 5675 5672 5669 5667 5664 5661 5659 5656 5653 5650 5647 5645 5642 5639 5636